This is the latest recevied weather packets stored in our database for station/object WX4FUN-13. If no packets are shown the sender has not sent any weather packets the latest 10 day(s).
| Time | Temp. | Humidity | Pressure | Rain* | Wind** | Luminosity | Snow |
|---|---|---|---|---|---|---|---|
| 1777834128 | 11.67° C | 39% | 1009.5 hPa | 0 mm | - | 261 W/m² | - |
| 1777833527 | 11.67° C | 38% | 1009.3 hPa | 0 mm | - | 272 W/m² | - |
| 1777832929 | 12.22° C | 39% | 1009.4 hPa | 0 mm | - | 264 W/m² | - |
| 1777832326 | 12.22° C | 38% | 1009.3 hPa | 0 mm | - | 234 W/m² | - |
| 1777831726 | 12.22° C | 38% | 1009.5 hPa | 0 mm | - | 585 W/m² | - |
| 1777831126 | 12.78° C | 40% | 1009.4 hPa | 0 mm | - | 1029 W/m² | - |
| 1777830525 | 12.22° C | 39% | 1009.5 hPa | 0 mm | - | 958 W/m² | - |
| 1777829925 | 12.22° C | 40% | 1009.7 hPa | 0 mm | - | 977 W/m² | - |
| 1777829322 | 12.78° C | 40% | 1009.6 hPa | 0 mm | - | 490 W/m² | - |
| 1777828724 | 12.22° C | 41% | 1009.6 hPa | 0 mm | - | 838 W/m² | - |
| 1777828124 | 11.67° C | 42% | 1009.4 hPa | 0 mm | - | 523 W/m² | - |
| 1777827522 | 11.11° C | 42% | 1009.3 hPa | 0 mm | - | 464 W/m² | - |
| 1777826921 | 11.11° C | 42% | 1009.3 hPa | 0 mm | - | 308 W/m² | - |
| 1777826319 | 11.11° C | 42% | 1009.2 hPa | 0 mm | - | 173 W/m² | - |
| 1777825718 | 11.11° C | 42% | 1009.3 hPa | 0 mm | - | 309 W/m² | - |
| 1777825118 | 11.11° C | 42% | 1008.9 hPa | 0 mm | - | 148 W/m² | - |
| 1777824520 | 11.11° C | 43% | 1009 hPa | 0 mm | - | 258 W/m² | - |
| 1777823928 | 11.11° C | 43% | 1009 hPa | 0 mm | - | 176 W/m² | - |
| 1777823319 | 10.56° C | 43% | 1008.9 hPa | 0 mm | - | 241 W/m² | - |
| 1777822717 | 11.11° C | 44% | 1009 hPa | 0 mm | - | 105 W/m² | - |
| 1777822119 | 11.67° C | 42% | 1009 hPa | 0 mm | - | 336 W/m² | - |
| 1777821519 | 12.22° C | 43% | 1009.1 hPa | 0 mm | - | 276 W/m² | - |
| 1777820918 | 12.78° C | 40% | 1009.1 hPa | 0 mm | - | 513 W/m² | - |
| 1777820319 | 12.78° C | 42% | 1009.3 hPa | 0 mm | - | 820 W/m² | - |
| 1777819715 | 12.22° C | 42% | 1009.4 hPa | 0 mm | - | 853 W/m² | - |
* Rain latest hour (hover to see other rain measurements)
** Current wind speed in m/s (hover to see current wind gust speed)